"Pseudo-MPEC" for P112YDn

Created 2020 Aug 15 11:07:18 UT using Find_Orb

Click here for an explanation of pseudo-MPECs

 
 Astrometry: 
     P112YDn  C2020 07 01A6K-rjqDxocYP4@+_7\R+PQVG:lX\;Hsg/E1'i/P-B'uc2ZIg+yaF51
     P112YDn  C2020 07 01F2-Ymito;$bL_+\68X=4A)HuR5,.A,@(Astrometryegr`\4UaP(F51
     P112YDn  C2020 07 01\6tv-brk1redacted;mCN).I6)RUpJoS8K:iSnKK+yGls]MA[ModF51
     P112YDn  C2020 07 016?pV5t%h3P\V)Q'.6Z0(v)@#J!+seA8@:bPO7UrJ,.i9axOu.2rkF51
     P112YDn  C2020 07 21ROp-ZirU[loDBE[xq_*%?M?Z%HUg4'Y@WOM7rmTlR5ag3XLq8Ex1F51
     P112YDn  C2020 07 21%$Y4kH$hsSpdLp1ZbN2Qiy%i:$hK)F^q7,3pO`IEKO;\/Wdu/Tt'F51
     P112YDn  C2020 07 21VSqJW9u:_32P@EFI,Jn1ScclickG=t28]fgev@here\FxuAlZ.$dF51
     P112YDn ^C2020 07 23.48737021 48 24.412-37 29 33.21   ~7NIq 21.58GVNEOCP568
     P112YDn ^C2020 07 23.48831821 48 24.281-37 29 32.84   ~7NIq 21.64GVNEOCP568
     P112YDn ^C2020 07 23.48927421 48 24.149-37 29 32.29   ~7NIq 21.48GVNEOCP568
     P112YDn KC2020 07 23N$1Qd[Eu4bBQ].D@t1+p+A)7PPFT;N2Zv;%KOBn[%V%yQj+!uLrY474
     P112YDn KC2020 07 23Cc/Mc=BlPHLLcQxmMF(RaR-Q7c=[_:xHhbf0T3Bv1tC_tKkwfw^=474
     P112YDn KC2020 07 26hGD,\]5,hwLS+hfedP9:i3e[0R2IIfor!pGa-_aBk*s=7$_WC#ss474
     P112YDn KC2020 07 26gcP-x:90=be4dLuIh=nr6e/nJ@7'm0D[MNhKB'\`iGN-NIV@$h0i474
     P112YDn KC2020 07 26Q$9qoudYsE-G32C:H)^JWExZVnZ\dJ3B=^78HK1n22[DVPm9hqK3474
     P112YDn KC2020 07 26o+Cc`$yJNfGEJ^8rcI@u6VtF,A_N80;-_JV=#ZEi'j9@(1),,YBb474
     P112YDn KC2020 08 11ShHtMP28ksT*wdGDliL7(l?muKyTG;ai=[qmm/_@=C='E=K7`wNB474
     P112YDn KC2020 08 11CH6sMiMO_5J5prD/8;R0Bw'HihEq0C?GDCv)2:_]*UU(dGDqW@H_474
     P112YDn KC2020 08 11hkMhc71\lM)6pYs)NX@24u:RB8#YL9G=f5ZW=IM9x42[bE!t3vhe474
     P112YDn ^C2020 08 12.46241421 01 25.745-33 37 07.88   ~8CH7 21.39GVNEOCP568
     P112YDn ^C2020 08 12.46359421 01 25.579-33 37 06.85   ~8CH7 21.39GVNEOCP568
     P112YDn ^C2020 08 12.46477721 01 25.413-33 37 05.76   ~8CH7 21.33GVNEOCP568
     P112YDn 1C2020 08 13r'CL:Iea@+Q!cQrfYLW`l87mP$i?j;gh:6-UexplanationV9`1VQ62
     P112YDn 1C2020 08 138)vq0V(pItM:g#?0Bc%vPG6@UFPH,b$xETIU1QZ%SNF0G0-06):]Q62
     P112YDn  C2020 08 14tZ8te:Mr%LMN\^Zr9IF`YnpfX,JsDD-6rQxyIWv`bZ@$,YMSs,!jF51
     P112YDn  C2020 08 14MYPwRNu:em2pkfsIlpcT*)27_D6EEZr$dI1mDKX77(]#!`oKI#V,F51
     P112YDn  C2020 08 145GNEltjLFnkpY^n*p`BxwES7o%`r5Fb6H6[;dKAes25SJ)]tCYr@F51
     P112YDn  C2020 08 14%WN+q@=bVfS7[q\iiqB9UZ4xm`sr@PK!E?c!_pl@hbwJRfvNYQ.GF51

Station data:
(474) Mount John Observatory, Lake Tekapo  (S43.987388 E170.464960)  New
   Zealand.  Observers A. C. Gilmore, P. M. Kilmartin. Measurer P. M.
   Kilmartin. 1.0-m f/7.7 reflector + CCD.
(568) Mauna Kea  (N19.826116 W155.472200)  US/Hawaii.
(F51) Pan-STARRS 1, Haleakala  (N20.707235 W156.255910)  US/Hawaii.
   Observers N. Primak, A. Schultz, S. Watters, J. Thiel, T. Goggia. Measurer
   PS1 Science Consortium. 1.8-m Ritchey-Chrétien + CCD.
(Q62) iTelescope Observatory, Siding Spring  (S31.273289 E149.064420)
   Australia/NSW. 0.50-m f/6.8 astrograph + CCD + focal reducer, 0.70-m f/6.6
   astrograph + CCD.

Orbital elements:  P112YDn
   Perihelion 2020 Oct 18.697431 +/- 0.0333 TT = 16:44:18 (JD 2459141.197431)
Epoch 2020 Aug 14.0 TT = JDT 2459075.5                        AutoNEOCP
M 359.58275541 +/- 0.006            (J2000 ecliptic)
n   0.00635100 +/- 0.000102         Peri.    6.32550 +/- 0.010
a  28.8784910 +/- 0.309             Node   314.05728 +/- 0.0037
e   0.8962234 +/- 0.0011            Incl.   79.46414 +/- 0.016
P 155.19                   H 17.1   G  0.15   U  6.6  
q 2.99690966 +/- 0.000344    Q 54.7600723 +/- 0.593
From 28 observations 2020 July 1-Aug. 14; mean residual 0".17
Residuals in arcseconds: 
200701 F51  .07-  .60-    200723 474  .24-  .25-    200812 568  .02+  .08+    
200701 F51  .17+  .16+    200723 474  .18+  .14+    200812 568  .02+  .10+    
200701 F51  .04+  .14+    200726 474  .13-  .06+    200813 Q62  .02-  .40-    
200701 F51  .18-  .22+    200726 474  .30-  .39-    200813 Q62  .02+  .11+    
200721 F51  .02-  .14+    200726 474  .36+  .36+    200814 F51  .10+  .01+    
200721 F51  .03+  .07+    200726 474  .08+  .01+    200814 F51  .00   .08+    
200721 F51  .07+  .00     200811 474  .08+  .06+    200814 F51  .01-  .09-    
200723 568  .03+  .02+    200811 474  .11-  .08+    200814 F51  .01+  .04-    
200723 568  .03+  .07-    200811 474  .17-  .10-    
200723 568  .02+  .01+    200812 568  .03+  .12+    

Ephemerides (geocentric):
Date (UTC) HH   RA              Dec         delta   r     elong  mag " sig PA
---- -- -- --  -------------   -----------  ------ ------ -----  --- ---- ---
2020 08 15 11  20 54 36.553   -32 50 44.97  2.0927 3.0570 158.4 21.6 .126  71
2020 08 15 12  20 54 30.944   -32 50 05.24  2.0928 3.0569 158.3 21.6 .128  71
2020 08 15 13  20 54 25.337   -32 49 25.49  2.0928 3.0569 158.3 21.6 .130  71
2020 08 15 14  20 54 19.732   -32 48 45.70  2.0929 3.0568 158.3 21.6 .132  71
2020 08 15 15  20 54 14.130   -32 48 05.89  2.0930 3.0567 158.3 21.6 .134  72
2020 08 15 16  20 54 08.531   -32 47 26.05  2.0930 3.0566 158.2 21.6 .136  72
2020 08 15 17  20 54 02.933   -32 46 46.18  2.0931 3.0566 158.2 21.6 .138  72
2020 08 15 18  20 53 57.339   -32 46 06.28  2.0932 3.0565 158.2 21.6 .140  72
2020 08 15 19  20 53 51.747   -32 45 26.36  2.0932 3.0564 158.1 21.6 .143  73
2020 08 15 20  20 53 46.157   -32 44 46.41  2.0933 3.0563 158.1 21.6 .145  73
2020 08 15 21  20 53 40.570   -32 44 06.43  2.0934 3.0563 158.1 21.6 .147  73
2020 08 15 22  20 53 34.985   -32 43 26.42  2.0935 3.0562 158.0 21.6 .149  73
2020 08 15 23  20 53 29.403   -32 42 46.38  2.0935 3.0561 158.0 21.6 .151  74
2020 08 16 00  20 53 23.824   -32 42 06.32  2.0936 3.0560 158.0 21.6 .153  74
2020 08 16 01  20 53 18.247   -32 41 26.23  2.0937 3.0560 157.9 21.6 .155  74
2020 08 16 02  20 53 12.673   -32 40 46.11  2.0937 3.0559 157.9 21.6 .158  74
2020 08 16 03  20 53 07.101   -32 40 05.97  2.0938 3.0558 157.9 21.6 .160  74
2020 08 16 04  20 53 01.532   -32 39 25.80  2.0939 3.0557 157.8 21.6 .162  75
2020 08 16 05  20 52 55.965   -32 38 45.60  2.0940 3.0556 157.8 21.6 .164  75
2020 08 16 06  20 52 50.401   -32 38 05.37  2.0940 3.0556 157.8 21.6 .166  75
2020 08 16 07  20 52 44.839   -32 37 25.11  2.0941 3.0555 157.8 21.6 .169  75
2020 08 16 08  20 52 39.280   -32 36 44.83  2.0942 3.0554 157.7 21.6 .171  75
2020 08 16 09  20 52 33.724   -32 36 04.52  2.0943 3.0553 157.7 21.6 .173  76
2020 08 16 10  20 52 28.171   -32 35 24.19  2.0944 3.0553 157.7 21.6 .175  76
2020 08 16 11  20 52 22.620   -32 34 43.82  2.0944 3.0552 157.6 21.6 .178  76
2020 08 16 12  20 52 17.071   -32 34 03.43  2.0945 3.0551 157.6 21.6 .180  76
2020 08 16 13  20 52 11.525   -32 33 23.02  2.0946 3.0550 157.6 21.6 .182  76
2020 08 16 14  20 52 05.982   -32 32 42.57  2.0947 3.0550 157.5 21.6 .184  76
2020 08 16 15  20 52 00.442   -32 32 02.10  2.0948 3.0549 157.5 21.6 .187  77
2020 08 16 16  20 51 54.904   -32 31 21.61  2.0949 3.0548 157.5 21.6 .189  77
2020 08 16 17  20 51 49.369   -32 30 41.08  2.0949 3.0547 157.4 21.6 .191  77
2020 08 16 18  20 51 43.836   -32 30 00.53  2.0950 3.0547 157.4 21.6 .194  77
2020 08 16 19  20 51 38.307   -32 29 19.95  2.0951 3.0546 157.4 21.6 .196  77
2020 08 16 20  20 51 32.780   -32 28 39.35  2.0952 3.0545 157.3 21.6 .199  77
2020 08 16 21  20 51 27.255   -32 27 58.72  2.0953 3.0544 157.3 21.6 .201  78
2020 08 16 22  20 51 21.734   -32 27 18.06  2.0954 3.0544 157.3 21.6 .203  78
2020 08 16 23  20 51 16.215   -32 26 37.38  2.0955 3.0543 157.2 21.6 .206  78
2020 08 17 00  20 51 10.698   -32 25 56.67  2.0956 3.0542 157.2 21.6 .208  78
2020 08 17 01  20 51 05.185   -32 25 15.93  2.0956 3.0541 157.2 21.6 .210  78
2020 08 17 02  20 50 59.674   -32 24 35.17  2.0957 3.0541 157.1 21.6 .213  78
2020 08 17 03  20 50 54.166   -32 23 54.38  2.0958 3.0540 157.1 21.6 .215  78
2020 08 17 04  20 50 48.661   -32 23 13.57  2.0959 3.0539 157.1 21.6 .218  79
2020 08 17 05  20 50 43.158   -32 22 32.73  2.0960 3.0538 157.0 21.6 .220  79
2020 08 17 06  20 50 37.658   -32 21 51.86  2.0961 3.0538 157.0 21.6 .223  79
2020 08 17 07  20 50 32.161   -32 21 10.97  2.0962 3.0537 157.0 21.6 .225  79
2020 08 17 08  20 50 26.667   -32 20 30.05  2.0963 3.0536 156.9 21.6 .228  79
2020 08 17 09  20 50 21.176   -32 19 49.11  2.0964 3.0535 156.9 21.6 .230  79
2020 08 17 10  20 50 15.687   -32 19 08.14  2.0965 3.0535 156.9 21.6 .233  79